Flag for Austria Weather past 2 weeks in Bruck an der Mur, Styria, Austria

Now
73 °F

Scattered clouds.


Feels Like: 77 °F
Forecast: 45 / 56 °F
Wind: 6 mph from East

Location: Zeltweg

Current Time: Sep 21, 2014 at 3:14:35 PM

Latest Report: Sep 21, 2014 at 2:20 PM


Visibility: 19 mi

Pressure: 29.95 "Hg

Humidity: 53%

Dew point: 55 °F

Location of Bruck an der MurLocation

Historic Weather in Bruck an der Mur — Graph

°F

Bruck an der Mur temperature yesterday

Maximum temperature yesterday: 73 °F (at 1:50 PM)
Minimum temperature yesterday: 48 °F (at 6:50 AM)
Average temperature yesterday: 63 °F

Past Weeks' High & Low Weather Summary

 TemperatureHumidityPressure
High77 °F (Sep 8, 4:20 PM)100% (Sep 6, 8:50 PM)30.12 "Hg (Sep 6, 8:50 PM)
Low45 °F (Sep 18, 6:50 AM)41% (Sep 8, 3:50 PM)29.89 "Hg (Sep 12, 4:50 AM)
Average59 °F81%30.04 "Hg
* Reported Sep 6 1:50 PM — Sep 21 1:50 PM, Bruck an der Mur, Weather by CustomWeather, © 2014

Note: Actual official high and low records may vary slightly from our data, if they occured in-between our weather recording intervals... More about our weather records

Advertising

Bruck an der Mur weather history for previous 24 hours

 ConditionsComfort  
Time TempWeatherWind HumidityBarometerVisibility
1:50 PM
Sep 21
70 °FScattered clouds.5 mph64%29.95 "Hg19 mi
1:20 PM68 °FScattered clouds.3 mph69%29.98 "Hg19 mi
12:50 PM68 °FScattered clouds.3 mph69%29.98 "Hg19 mi
12:20 PM66 °FScattered clouds.2 mph68%30.01 "Hg12 mi
11:50 AM63 °FScattered clouds.2 mph77%30.01 "Hg12 mi
11:20 AM63 °FScattered clouds.3 mph83%30.01 "Hg12 mi
10:50 AM63 °FScattered clouds.3 mph77%30.04 "Hg12 mi
10:20 AM63 °FScattered clouds.2 mph77%30.04 "Hg12 mi
9:50 AM61 °FScattered clouds.2 mph77%30.04 "Hg9 mi
9:20 AM57 °FPartly sunny.1 mph88%30.04 "Hg9 mi
8:50 AM57 °FBroken clouds.1 mph94%30.04 "Hg9 mi
7:50 AM55 °FBroken clouds.2 mph94%30.04 "Hg6 mi
6:50 AM55 °FPassing clouds.2 mph94%30.04 "Hg6 mi
5:50 AM55 °FPassing clouds.1 mph94%30.04 "Hg6 mi
9:50 PM
Sep 20
59 °FSprinkles. Partly cloudy.7 mph94%30.07 "Hg6 mi
8:50 PM61 °FThunderstorms. Partly cloudy.1 mph94%30.04 "Hg6 mi
7:50 PM63 °FBroken clouds.2 mph83%30.01 "Hg12 mi
3:20 PM72 °FThunderstorms. Scattered clouds.5 mph61%29.98 "Hg19 mi
Weather by CustomWeather, © 2014

See weather overviewHow to use our weather pages